Flag for Germany Weather past 2 weeks in Dessau-Rosslau, Saxony-Anhalt, Germany

Now
46 °F

Passing clouds.


Feels Like: 37 °F
Forecast: 49 / 52 °F
Wind: 31 mph from Southwest

Location: Leipzig-Schkeuditz

Current Time: Dec 22, 2014 at 6:03:53 AM

Latest Report: Dec 22, 2014 at 5:20 AM


Visibility: N/A

Pressure: 29.98 "Hg

Humidity: 82%

Dew point: 41 °F

Location of Dessau-RosslauLocation

Historic Weather in Dessau-Rosslau — Graph

°F

Dessau-Rosslau temperature yesterday

Maximum temperature yesterday: 45 °F (at 1:20 PM)
Minimum temperature yesterday: 37 °F (at 12:20 AM)
Average temperature yesterday: 42 °F

Past Weeks' High & Low Weather Summary

 TemperatureHumidityPressure
High54 °F (Dec 18, 9:50 PM)100% (Dec 7, 4:20 AM)30.36 "Hg (Dec 7, 4:20 AM)
Low27 °F (Dec 9, 1:50 AM)66% (Dec 12, 1:20 PM)29.45 "Hg (Dec 12, 7:20 PM)
Average40 °F88%29.94 "Hg
* Reported Dec 7 4:20 AM — Dec 22 4:20 AM, Dessau-Rosslau, Weather by CustomWeather, © 2014

Note: Actual official high and low records may vary slightly from our data, if they occured in-between our weather recording intervals... More about our weather records

Advertising

Dessau-Rosslau weather history for previous 24 hours

 ConditionsComfort  
Time TempWeatherWind HumidityBarometerVisibility
4:20 AM
Dec 22
46 °FPartly cloudy.37 mph82%29.98 "HgN/A
3:50 AM46 °FPartly cloudy.35 mph76%29.98 "HgN/A
3:20 AM46 °FPartly cloudy.30 mph76%30.01 "HgN/A
2:50 AM46 °FPassing clouds.26 mph82%30.04 "HgN/A
2:20 AM46 °FPassing clouds.26 mph82%30.04 "HgN/A
1:50 AM46 °FPassing clouds.28 mph76%30.04 "HgN/A
1:20 AM45 °FPassing clouds.32 mph81%30.04 "HgN/A
12:50 AM45 °FPassing clouds.32 mph81%30.04 "HgN/A
12:20 AM45 °FPassing clouds.25 mph81%30.07 "HgN/A
11:50 PM
Dec 21
45 °FPassing clouds.23 mph81%30.07 "HgN/A
11:20 PM45 °FPassing clouds.22 mph81%30.09 "HgN/A
10:20 PM45 °FPassing clouds.25 mph81%30.12 "HgN/A
9:50 PM45 °FPartly cloudy.24 mph81%30.12 "HgN/A
9:20 PM45 °FPartly cloudy.22 mph81%30.12 "HgN/A
8:50 PM45 °FPartly cloudy.22 mph76%30.15 "HgN/A
8:20 PM45 °FPartly cloudy.21 mph76%30.15 "HgN/A
7:50 PM45 °FPassing clouds.20 mph76%30.18 "HgN/A
7:20 PM43 °FPassing clouds.21 mph81%30.18 "HgN/A
6:50 PM43 °FPassing clouds.20 mph81%30.18 "HgN/A
6:20 PM43 °FPassing clouds.17 mph81%30.21 "HgN/A
5:50 PM43 °FPassing clouds.17 mph81%30.21 "HgN/A
5:20 PM43 °FPartly cloudy.18 mph81%30.21 "HgN/A
4:50 PM43 °FPartly cloudy.17 mph81%30.21 "HgN/A
4:20 PM43 °FPartly cloudy.20 mph81%30.24 "HgN/A
3:50 PM43 °FBroken clouds.20 mph81%30.24 "HgN/A
3:20 PM43 °FBroken clouds.20 mph81%30.24 "HgN/A
2:50 PM43 °FMostly cloudy.20 mph81%30.27 "HgN/A
2:20 PM43 °FPartly sunny.16 mph81%30.27 "HgN/A
1:50 PM43 °FBroken clouds.16 mph81%30.27 "HgN/A
1:20 PM45 °FBroken clouds.17 mph76%30.27 "HgN/A
12:50 PM43 °FBroken clouds.18 mph87%30.30 "HgN/A
12:20 PM41 °FBroken clouds.18 mph87%30.30 "HgN/A
11:50 AM41 °FPartly sunny.20 mph87%30.30 "HgN/A
11:20 AM43 °FSunny.18 mph81%30.30 "Hg10 mi
10:50 AM43 °FPartly sunny.22 mph81%30.33 "HgN/A
10:20 AM41 °FBroken clouds.18 mph87%30.33 "HgN/A
9:50 AM41 °FPartly sunny.18 mph87%30.30 "HgN/A
9:20 AM39 °FPartly sunny.18 mph93%30.30 "HgN/A
8:50 AM41 °FPartly sunny.17 mph87%30.30 "HgN/A
8:20 AM41 °FSprinkles. Broken clouds.17 mph87%30.27 "HgN/A
7:50 AM41 °FPartly cloudy.17 mph87%30.27 "HgN/A
7:20 AM39 °FPartly cloudy.21 mph93%30.27 "HgN/A
6:50 AM39 °FPartly cloudy.17 mph93%30.24 "HgN/A
6:20 AM41 °FPassing clouds.18 mph87%30.24 "HgN/A
Weather by CustomWeather, © 2014

See weather overviewHow to use our weather pages